EHI
36 35 31 27 23 19 15 11 10 10 9 9 10 8 8 7 5 4 4 4 5 4 4 5 4 2 3 6 7 7 4 3 3 1 0 0 0 0 0 0 0 0 0
40 38 33 29 26 22 17 13 13 13 12 11 10 9 8 7 5 3 3 3 2 2 2 2 2 2 3 6 6 6 3 2 3 1 0 0 1 1 0 0 0 0 0
46 42 36 31 30 27 23 20 17 16 15 13 11 8 6 4 3 1 1 1 0 0 0 0 0 1 3 5 5 5 4 3 3 1 0 0 1 1 0 0 0 1 1
50 46 40 36 34 32 31 27 22 18 16 14 11 6 3 1 1 0 0 0 0 0 0 0 0 1 1 3 4 4 4 4 3 1 0 0 1 1 0 0 0 0 0
55 53 49 43 38 36 34 29 23 18 16 14 9 4 1 0 0 0 0 0 0 0 0 0 0 0 0 1 1 3 3 2 1 0 0 0 0 0 0 0 0 0 0
64 61 56 50 42 37 33 27 20 16 15 12 7 3 0 0 0 0 0 0 0 0 0 0 0 0 0 0 0 1 1 0 0 0 0 0 0 0 0 0 0 0 0
68 63 57 51 44 37 31 26 20 15 13 10 7 3 1 1 0 0 0 1 1 1 0 0 0 0 0 0 0 0 0 0 0 0 0 0 0 0 0 0 0 0 0
64 60 54 48 43 38 34 28 21 16 13 10 7 4 3 2 1 0 1 2 2 1 0 0 0 0 0 0 0 0 0 0 0 0 0 0 0 0 0 0 0 0 0
59 56 51 45 40 38 35 29 21 16 14 11 8 6 5 4 2 0 1 1 1 1 0 0 0 0 0 0 0 0 0 0 0 0 0 0 0 0 0 0 1 1 1
55 54 50 44 38 35 33 28 20 15 14 12 9 7 6 4 2 0 0 0 0 0 0 0 0 0 0 0 0 0 0 0 0 0 0 0 0 0 0 0 1 2 3
54 53 50 43 35 31 30 27 20 15 13 11 10 8 6 3 1 0 0 0 0 0 0 0 0 0 0 0 0 0 0 0 0 0 0 0 0 0 0 0 1 2 2
53 53 50 42 34 29 28 25 19 16 13 11 10 9 6 2 0 0 0 0 0 0 0 0 0 0 0 0 0 0 0 0 0 0 0 0 0 0 0 0 1 1 1
50 49 46 40 33 29 26 23 18 14 12 11 10 9 6 2 0 0 0 0 0 0 0 0 0 0 0 0 0 0 0 0 0 0 0 0 0 0 0 0 0 0 0
45 45 42 38 33 29 26 22 16 12 10 10 10 9 6 3 0 0 0 0 0 0 0 0 0 0 0 0 0 0 0 0 0 0 0 0 0 0 0 0 0 0 0
41 41 39 35 31 27 23 18 12 8 7 7 8 8 5 2 0 0 0 0 0 0 0 0 0 0 0 0 0 0 0 0 0 0 0 0 0 0 0 0 0 0 0
34 34 33 29 25 22 17 12 8 5 3 3 4 4 2 1 0 0 0 0 0 0 0 0 0 0 0 0 0 0 0 0 0 0 0 0 0 0 0 0 0 0 0
27 27 26 23 19 16 12 8 6 4 2 1 1 1 1 0 0 0 0 0 0 0 0 0 0 0 0 0 0 0 0 0 0 0 0 0 0 0 0 0 0 0 0
23 22 21 19 17 13 9 7 8 7 5 2 1 0 0 0 0 0 0 0 0 1 1 0 0 0 0 0 0 0 0 0 0 0 0 0 0 0 0 0 0 0 0
20 18 17 17 15 12 9 7 8 8 7 5 3 2 1 0 0 0 0 0 0 1 1 0 0 0 0 0 0 0 0 0 0 0 0 0 0 0 0 0 0 0 0
17 14 13 14 14 12 10 8 8 8 8 7 6 5 3 2 1 1 1 0 0 1 1 0 0 0 0 0 0 0 0 0 0 0 0 0 0 0 0 0 0 0 0
12 11 10 11 12 12 11 9 8 8 8 8 7 6 5 4 4 3 2 1 0 0 0 0 0 0 0 0 0 0 0 0 0 0 0 0 0 0 0 0 0 0 0
10 9 9 9 10 11 11 9 7 7 7 6 6 6 5 5 5 4 3 2 1 0 0 0 0 0 0 0 0 0 0 0 0 0 0 0 0 0 0 0 0 0 0
9 10 10 10 9 9 9 8 7 6 5 4 5 5 5 5 5 5 3 2 1 0 0 0 0 0 0 0 0 0 0 0 0 0 0 0 0 0 0 0 0 0 0
10 10 11 10 8 8 9 8 7 6 4 3 4 4 4 4 4 3 2 1 0 0 0 0 0 0 0 0 0 0 0 0 0 0 0 0 0 0 0 0 0 0 0
10 10 10 9 8 8 8 7 6 5 3 1 1 2 2 1 1 1 1 0 0 0 0 0 0 0 0 0 0 0 0 0 0 0 0 0 0 0 0 0 0 0 0
10 10 9 8 7 6 6 6 6 5 2 0 0 1 0 0 0 0 0 0 0 0 0 0 0 0 0 0 0 0 0 0 0 0 0 0 0 0 0 0 0 0 0
Wind_Speed
8 7 6 6 5 5 4 3 2 1 1 1 1 1 2 2 2 2 2 2 2 2 1 1 1 1 0 1 1 2 2 3 4 4 3 4 5 6 6 6 6 7 8
8 8 7 6 6 5 4 4 3 2 2 2 1 1 2 2 2 2 2 2 2 2 2 2 2 1 1 1 1 2 3 3 5 6 5 4 5 6 6 5 5 6 7
9 8 8 7 7 5 5 4 4 3 2 2 2 2 2 2 2 2 2 2 3 3 3 3 3 2 2 3 2 3 3 4 5 6 5 4 4 5 6 5 6 4 6
10 9 8 7 7 6 6 5 4 3 3 3 2 2 2 2 2 2 3 3 4 4 4 4 3 3 3 3 3 4 4 5 6 6 6 5 5 5 4 5 5 4 4
10 9 8 7 7 6 6 5 5 4 4 4 3 3 2 2 3 3 3 3 3 4 4 4 5 6 6 4 3 4 4 4 5 6 6 5 5 5 4 4 4 4 4
10 9 9 8 8 7 6 5 5 4 4 4 4 4 3 3 6 4 2 3 3 4 4 4 5 5 7 7 7 7 4 4 4 5 5 6 6 5 4 3 4 4 3
10 9 9 9 9 8 7 7 6 5 5 4 4 4 4 5 4 3 3 2 3 3 4 3 3 5 4 6 6 6 6 6 3 2 5 5 6 5 5 4 3 2 2
11 10 10 10 9 8 8 7 6 5 5 5 5 4 4 5 5 3 1 2 4 4 4 3 4 4 4 3 4 5 5 4 2 2 3 3 3 3 3 4 5 5 4
11 11 10 10 10 9 9 8 7 6 5 5 5 5 5 6 5 3 2 3 4 4 4 4 3 4 4 1 3 5 5 5 6 7 6 5 5 3 1 3 4 4 4
11 11 10 10 9 9 9 8 7 6 6 6 5 5 5 5 5 3 3 3 4 4 4 4 4 4 3 1 2 4 4 4 5 6 6 5 5 5 4 3 2 2 2
9 9 9 9 9 9 8 8 8 7 6 5 6 5 5 5 7 4 3 2 2 3 3 3 4 5 3 1 1 2 3 2 4 4 5 5 4 4 4 3 1 2 2
8 8 9 9 8 8 8 8 7 7 7 7 6 6 5 5 5 5 3 1 2 2 2 3 5 6 3 1 1 4 2 3 3 3 3 3 3 3 3 2 1 1 1
8 9 8 8 7 8 9 9 7 7 6 6 6 6 6 6 6 7 6 3 1 1 2 5 6 6 5 4 4 4 4 4 3 3 3 2 2 2 2 3 4 3 3
8 8 8 8 8 8 7 7 7 7 6 6 7 6 6 6 6 7 7 7 6 5 4 6 7 5 4 2 5 6 4 2 2 2 2 2 3 3 4 3 3 4 4
7 7 7 8 7 7 6 4 5 5 4 5 6 6 6 6 5 5 5 6 5 4 5 5 5 5 5 5 5 4 3 4 3 3 2 3 3 3 3 3 3 4 4
7 7 6 6 7 7 6 5 2 1 2 3 1 2 3 4 8 8 5 3 3 4 5 5 5 5 5 5 5 5 4 4 3 3 3 3 3 3 3 3 4 4 4
5 6 5 6 6 6 7 6 5 4 3 3 4 3 3 6 8 9 8 6 5 6 6 5 5 5 5 5 5 4 4 4 3 4 4 4 4 4 4 4 4 4 3
5 5 5 5 6 6 6 6 6 6 6 6 6 7 8 8 9 9 9 8 7 7 7 6 6 5 5 5 4 4 4 4 5 5 4 4 4 4 4 4 4 4 4
5 4 4 4 5 6 6 6 6 7 6 6 6 7 8 8 8 8 10 8 7 8 7 7 6 6 5 5 5 5 5 5 4 5 5 5 5 5 4 4 4 3 5
5 5 5 5 5 5 5 6 6 7 7 6 6 6 8 8 8 8 9 8 7 7 7 7 6 6 5 5 5 5 5 5 5 6 5 5 5 5 5 6 5 5 5
4 5 7 6 5 5 5 6 6 6 6 6 6 6 8 8 8 8 8 8 7 7 7 6 6 6 6 5 5 6 6 5 5 5 5 5 5 5 5 5 5 5 5
4 4 5 5 5 5 5 5 6 6 6 6 5 6 9 8 7 7 7 8 8 7 7 6 6 6 5 6 6 6 6 6 5 5 5 5 5 6 6 6 5 5 5
5 5 5 5 5 5 5 6 6 6 6 6 6 6 7 8 7 7 7 7 7 7 7 6 6 5 5 5 5 6 6 5 5 5 5 5 5 5 6 6 6 6 6
5 5 5 5 5 5 6 6 6 6 6 6 6 6 7 7 7 7 6 6 6 6 6 6 6 7 8 6 5 5 4 3 4 5 6 6 6 6 5 5 6 6 6
5 5 5 5 5 5 5 5 6 6 6 5 5 6 6 6 6 6 6 6 6 6 7 7 6 7 8 9 6 4 3 3 2 3 5 5 6 5 5 6 5 6 6
5 5 5 4 5 5 5 5 6 6 6 5 5 5 5 6 6 5 5 5 5 5 6 6 7 7 7 7 7 6 5 5 3 3 4 4 4 4 5 5 6 6 6
Wind_Direction
180 179 174 173 173 174 170 169 172 160 139 121 86 69 59 48 42 40 39 42 51 56 46 52 30 23 60 187 169 165 143 135 132 121 115 115 117 113 114 116 114 108 97
175 174 175 174 175 177 170 167 161 148 140 122 105 90 81 69 57 56 48 47 50 54 50 53 48 63 72 84 134 135 125 133 139 138 136 134 125 125 124 122 113 107 105
171 174 174 176 175 177 168 159 151 145 140 128 118 107 88 76 68 63 63 66 62 55 50 53 54 61 69 79 98 115 126 131 137 139 139 137 138 137 136 122 111 108 112
173 174 175 177 174 169 163 157 155 155 149 141 132 117 103 84 73 75 75 73 72 66 59 57 55 59 69 92 105 116 125 131 134 137 138 143 139 141 144 138 131 128 115
174 175 173 169 162 160 159 161 160 160 152 139 134 123 115 111 74 64 86 87 83 83 76 68 67 62 55 49 73 109 130 138 141 141 143 146 146 155 155 150 140 132 116
175 172 166 163 163 164 163 160 155 151 144 140 140 131 120 83 68 40 29 92 93 91 87 82 92 91 87 78 68 67 70 124 138 147 149 152 155 157 154 159 151 150 140
173 170 166 167 167 165 162 157 154 152 146 141 137 126 109 93 89 70 34 90 104 91 88 89 88 90 102 102 105 112 87 69 77 157 148 155 158 162 163 156 150 141 122
174 173 172 172 169 166 165 161 158 153 149 147 145 141 135 120 117 114 103 129 105 102 101 97 97 100 83 89 115 108 105 96 91 126 126 133 131 146 170 166 162 160 155
178 179 176 173 170 170 170 165 159 158 158 160 154 155 146 133 133 145 225 141 122 115 106 93 98 108 75 33 124 119 114 114 89 75 73 91 92 100 164 182 180 189 170
182 180 175 173 174 174 166 162 161 165 166 167 156 155 153 145 144 171 241 177 142 138 126 116 81 80 91 359 142 132 130 125 126 127 126 143 148 153 192 221 215 218 192
177 173 172 173 173 169 163 164 166 169 167 170 161 160 162 155 155 172 251 225 159 159 148 140 111 106 104 17 298 117 110 137 152 155 154 157 161 166 182 187 246 277 276
169 171 172 173 173 165 165 168 171 170 171 173 173 175 166 163 165 169 186 239 308 167 163 137 117 129 131 164 137 102 130 222 182 169 169 171 172 170 162 167 174 303 339
168 172 174 175 173 168 170 171 174 182 190 184 183 183 176 167 158 161 175 184 224 207 122 88 116 150 169 166 155 168 205 211 189 183 179 175 166 145 163 176 177 187 201
172 173 174 173 173 172 178 179 185 191 196 194 193 192 180 175 174 173 177 179 181 187 167 141 155 177 205 149 164 191 214 213 230 206 185 171 169 178 197 205 202 199 202
173 175 177 177 176 177 180 184 195 200 212 213 201 193 188 186 173 169 188 184 187 174 172 180 184 181 187 186 190 193 198 186 202 205 199 199 197 198 200 213 230 235 234
177 177 182 180 178 179 173 173 126 175 166 200 275 220 172 138 141 152 166 162 147 153 193 196 195 203 202 197 195 190 195 198 202 205 211 216 216 216 213 212 222 235 244
180 182 184 183 179 181 180 182 181 167 150 177 192 188 172 153 158 166 169 166 167 175 204 207 205 210 213 209 207 205 200 190 205 215 216 217 223 226 223 222 227 239 247
183 179 188 186 185 186 188 189 190 187 184 187 186 187 183 178 177 175 166 167 182 198 216 216 213 214 216 219 216 212 210 199 202 218 220 224 229 233 233 232 230 242 254
186 182 188 188 191 193 192 194 198 196 195 190 176 170 182 180 177 180 181 206 203 199 207 213 217 217 213 210 215 216 217 216 215 225 226 229 235 238 241 243 240 219 252
185 182 196 195 197 202 199 203 204 200 200 199 195 182 170 180 187 184 200 214 216 209 207 210 213 216 214 214 213 215 216 215 214 225 229 227 233 239 240 244 252 247 244
186 184 194 197 199 204 207 211 211 210 207 206 205 187 182 199 203 199 200 206 214 214 209 211 210 212 214 217 219 217 221 222 222 228 231 231 238 241 248 249 246 251 258
200 194 204 209 204 206 211 215 218 214 211 211 203 179 182 214 214 209 207 206 209 214 211 211 214 213 216 215 217 222 225 226 226 229 233 233 232 236 240 245 247 250 252
213 208 206 208 211 205 212 219 220 217 215 212 207 197 192 212 218 215 210 208 209 210 210 209 214 215 214 220 220 221 227 229 231 235 243 243 243 242 242 243 247 252 253
215 214 214 210 210 213 216 220 222 221 220 217 216 210 205 209 219 219 215 211 209 208 208 210 213 212 211 216 220 216 213 230 239 231 236 246 245 245 244 244 248 254 256
215 211 215 216 215 218 221 225 227 226 224 221 220 220 216 211 213 217 219 216 214 213 211 209 210 210 212 212 211 199 161 166 229 263 235 238 243 248 252 252 254 256 256
222 219 219 222 219 219 220 225 227 225 224 222 218 220 222 219 213 211 213 214 212 211 211 207 205 201 202 205 198 183 166 165 181 239 252 233 234 241 247 249 251 253 253